Regional Weather Roundup
Issued by NWS Portland, ME

Home | Current Version | Previous Version | Text Only | Print | Product List | Glossary On
Versions: 1 2 3 4 5 6 7 8 9 10 11 12 13 14 15 16 17 18 19 20 21 22 23 24 25 26 27 28 29 30 31 32 33 34 35 36 37 38 39 40 41 42 43 44 45 46 47 48 49 50
000
ASUS41 KGYX 041210
RWRGYX
WEATHER ROUNDUP FOR MAINE AND NEW HAMPSHIRE
NATIONAL WEATHER SERVICE GRAY ME
700 AM EST WED MAR 04 2015

MEZ002-005-006-010-012-015-018-020-021-024-026-027-029-041300-
MAINE

CITY           SKY/WX    TMP DP  RH WIND       PRES   REMARKS
PORTLAND       CLOUDY    31  28  89 SW9       29.63R
6HR MIN TEMP:  31; 6HR MAX TEMP:  34; 6HR PCP:  0.01;

SANFORD        CLOUDY    27  19  74 CALM      29.65R
BAR HARBOR     CLOUDY    34  34 100 SW6       29.59R
WISCASSET      CLOUDY    32  30  92 SW3       29.64R
6HR MIN TEMP:  32; 6HR MAX TEMP:  34; 6HR PCP: TRACE;

ROCKLAND       CLOUDY    34  32  93 W13       29.61R
FRYEBURG       CLOUDY    23  21  92 CALM      29.59R
6HR MIN TEMP:  23; 6HR MAX TEMP:  27;

LEWISTONAUBURN CLOUDY    27  25  93 CALM      29.61R
AUGUSTA        CLOUDY    28  25  88 SW5       29.60R
6HR MIN TEMP:  27; 6HR MAX TEMP:  31; 6HR PCP:  0.01;

WATERVILLE     CLOUDY    28  23  80 S7        29.56R
BANGOR         CLOUDY    32  29  88 W7        29.58R
6HR MIN TEMP:  27; 6HR MAX TEMP:  33; 6HR PCP:  0.01;

GREENVILLE       N/A     22  20  92 CALM      29.45F
6HR MIN TEMP:  20; 6HR MAX TEMP:  22; 6HR PCP:  0.02;

MILLINOCKET    CLOUDY    28  24  85 W6        29.53S
6HR MIN TEMP:  25; 6HR MAX TEMP:  28; 6HR PCP:  0.03;

HOULTON        CLOUDY    27  24  89 SW6       29.49S
6HR MIN TEMP:  20; 6HR MAX TEMP:  27; 6HR PCP:  0.03;

PRESQUE ISLE   CLOUDY    27  21  80 S6        29.48S
6HR MIN TEMP:  18; 6HR MAX TEMP:  27;

FRENCHVILLE    FLURRIES  19  16  88 S7        29.44R
6HR MIN TEMP:  13; 6HR MAX TEMP:  19; 6HR PCP:  0.01;

CARIBOU        FLURRIES  24  21  88 SW6       29.46S
6HR MIN TEMP:  17; 6HR MAX TEMP:  24; 6HR PCP:  0.12;

$$

NHZ002-005-008-009-011-012-014-041300-
NEW HAMPSHIRE

CITY           SKY/WX    TMP DP  RH WIND       PRES   REMARKS
PORTSMOUTH     CLOUDY    33  30  91 W2        29.66R
ROCHESTER      CLOUDY    31  28  89 VRB3      29.65R
6HR MIN TEMP:  24; 6HR MAX TEMP:  31;

NASHUA         CLOUDY    33  32  96 CALM      29.69R
MANCHESTER     CLOUDY    35  33  92 SW3       29.66R
6HR MIN TEMP:  27; 6HR MAX TEMP:  36; 6HR PCP: TRACE;

CONCORD        CLOUDY    27  24  89 CALM      29.65S
6HR MIN TEMP:  24; 6HR MAX TEMP:  27;

LACONIA        CLOUDY    30  27  86 SW9       29.62R
PLYMOUTH       MOCLDY    26  26 100 E3        29.63R
BERLIN         CLOUDY    29  24  82 CALM      29.58R
6HR MIN TEMP:  22; 6HR MAX TEMP:  30;

WHITEFIELD     CLOUDY    32  25  75 SW6       29.61R
6HR MIN TEMP:  26; 6HR MAX TEMP:  32;

JAFFREY        CLOUDY    35  31  85 SW10G17   29.64R
6HR MIN TEMP:  32; 6HR MAX TEMP:  35;

KEENE          CLOUDY    36  30  80 SW5       29.68R
LEBANON        FLURRIES  35  27  72 W8        29.65R
6HR MIN TEMP:  27; 6HR MAX TEMP:  35; 6HR PCP: TRACE;

MT WASHINGTON  BLWGSNOW  10  10 100 NW69G86     N/A  VSB 0   WCI -19
6HR MIN TEMP:  11; 6HR MAX TEMP:  16;

$$

VTZ005-007-008-041300-
VERMONT

CITY           SKY/WX    TMP DP  RH WIND       PRES   REMARKS
ST JOHNSBURY     N/A     28  24  85 MISG      29.62R
MONTPELIER     CLOUDY    32  25  75 W6        29.66R
BURLINGTON     CLOUDY    33  26  75 S7        29.68R
$$

MAZ007-012-024-CTZ003-RIZ002-NYZ038-NYZ072-041300-
SOUTHERN NEW ENGLAND AND NY

CITY           SKY/WX    TMP DP  RH WIND       PRES   REMARKS
BOSTON         CLOUDY    37  34  89 SW13      29.70R
WORCESTER      CLOUDY    34  32  92 W18G29    29.65R
NANTUCKET      LGT RAIN  36  34  92 W21G30    29.76R
PROVIDENCE     LGT RAIN  36  34  92 SW7       29.73R
HARTFORD       CLOUDY    36  32  85 S7        29.73S
ALBANY         CLOUDY    34  28  79 VRB3      29.77R
NEW YORK CITY  LGT RAIN  36  33  89 S7        29.81R FOG
$$

ANZ081-ANZ082-ANZ150-NHZ014-MEZ023>029-041300-
COASTAL MARINE OBSERVATIONS

STATION/POSITION TIME  TEMP    WIND        PRES    WAVE
                       AIR SEA DIR/SP/G            HT/PER
                 (UTC) (F)     (DEG/KT/KT) (MB)    (FT/S)
MOUNT DESERT ROC 1200   36                 1001.4R
MATINICUS ROCK   1200   36     280/ 21/ 22 1002.6R
WELLS            1100   29     270/  1/  3 1002.2R
ISLE OF SHOALS   1200   36     230/ 17/ 18 1004.1R
JEFFREYS LEDGE   1121      40                N/A     6/ 8
CASHES LEDGE BUO 1150   41 40              1002.3R   9/ 8
$$

.............KEY..............
   WCI - WIND CHILL
   TC  - TEMPERATURE IN CELSIUS
   VSB - VISIBILITY IN MILES
   HX  - HEAT INDEX
   FAIR- INDICATES FEW OR NO CLOUDS BELOW 12,000 FT, WITH NO
         SIGNIFICANT WEATHER AND/OR OBSTRUCTIONS TO VISIBILITY.




USA.gov is the U.S. government's official web portal to all federal, state and local government web resources and services.